�N����,����,�~����,�C��,���x,�C��,����,���ϕ���,�ő�u�ԕ���,�ő厞����,���˗�,�I�_���x,�n�����x,�ő啗���N��,DTYPE
"16/10/07","00:10",0.0,16.3,92.3,1016.8,303.1,1.0,1.4,313.7,0.00,15.1,21.4,"00:00:56",1
"16/10/07","00:20",0.0,16.1,92.5,1017.1,311.3,0.8,1.9,322.9,0.00,14.9,21.5,"00:14:16",1
"16/10/07","00:30",0.0,16.0,92.8,1016.6,303.8,0.8,1.3,330.6,0.00,14.9,21.4,"00:20:40",1
"16/10/07","00:40",0.0,15.9,93.0,1016.8,304.7,1.1,1.4,342.8,0.00,14.8,21.5,"00:30:16",1
"16/10/07","00:50",0.0,15.8,93.3,1017.1,304.0,1.1,1.7,324.9,0.00,14.8,21.2,"00:49:12",1
"16/10/07","01:00",0.0,15.6,93.7,1017.1,298.0,1.0,1.6,246.2,0.00,14.6,21.3,"00:53:52",1
"16/10/07","01:10",0.0,15.6,93.9,1017.3,311.8,1.1,2.1,318.3,0.00,14.7,21.1,"01:03:04",1
"16/10/07","01:20",0.0,15.4,93.8,1016.8,301.4,0.7,1.0,306.3,0.00,14.4,21.1,"01:14:40",1
"16/10/07","01:30",0.0,15.3,94.0,1017.1,306.5,0.8,1.3,341.4,0.00,14.4,21.1,"01:26:00",1
"16/10/07","01:40",0.0,15.2,93.9,1016.8,302.0,0.8,1.2,305.9,0.00,14.3,21.0,"01:32:40",1
"16/10/07","01:50",0.0,15.1,94.2,1016.8,301.1,0.7,1.2,303.8,0.00,14.2,20.8,"01:46:48",1
"16/10/07","02:00",0.0,15.0,94.3,1016.8,303.3,0.7,1.3,295.6,0.00,14.1,20.8,"01:53:12",1
"16/10/07","02:10",0.0,15.0,94.6,1017.3,299.7,0.6,1.1,316.1,0.00,14.2,20.8,"02:08:56",1
"16/10/07","02:20",0.0,15.2,94.8,1017.1,298.7,0.5,1.8,269.5,0.00,14.4,20.7,"02:12:56",1
"16/10/07","02:30",0.0,15.3,94.2,1017.1,318.8,0.2,1.2,312.9,0.00,14.4,20.9,"02:20:48",1
"16/10/07","02:40",0.0,15.2,94.2,1017.1,287.2,0.6,1.2,307.7,0.00,14.3,20.6,"02:38:32",1
"16/10/07","02:50",0.0,15.1,94.1,1017.1,293.3,0.8,1.2,328.5,0.00,14.2,20.7,"02:42:00",1
"16/10/07","03:00",0.0,14.9,94.2,1017.1,292.5,1.0,1.3,299.1,0.00,14.0,20.5,"02:53:28",1
"16/10/07","03:10",0.0,14.8,94.3,1017.3,307.0,0.7,1.2,315.0,0.00,13.9,20.6,"03:02:32",1
"16/10/07","03:20",0.0,14.6,94.5,1017.3,305.5,1.1,1.4,320.3,0.00,13.8,20.6,"03:13:20",1
"16/10/07","03:30",0.0,14.5,94.7,1017.3,305.6,0.7,1.2,326.5,0.00,13.7,20.4,"03:21:04",1
"16/10/07","03:40",0.0,14.4,94.9,1017.5,305.0,1.0,1.7,326.4,0.00,13.6,20.5,"03:31:28",1
"16/10/07","03:50",0.0,14.2,95.2,1017.1,295.6,1.0,1.3,318.6,0.00,13.5,20.3,"03:46:48",1
"16/10/07","04:00",0.0,14.1,95.5,1017.5,291.9,1.0,1.6,302.0,0.00,13.4,20.3,"03:50:56",1
"16/10/07","04:10",0.0,14.1,95.8,1017.3,286.8,1.1,1.7,304.8,0.00,13.5,20.3,"04:00:48",1
"16/10/07","04:20",0.0,14.0,95.7,1017.3,293.3,1.1,1.6,322.4,0.00,13.4,20.2,"04:17:04",1
"16/10/07","04:30",0.0,13.9,95.9,1017.3,287.3,1.0,1.2,271.0,0.00,13.3,20.3,"04:21:28",1
"16/10/07","04:40",0.0,13.8,96.1,1017.3,285.6,1.2,1.4,294.9,0.00,13.2,20.3,"04:34:48",1
"16/10/07","04:50",0.0,13.7,96.0,1017.3,291.1,0.8,1.1,288.3,0.00,13.1,19.9,"04:48:24",1
"16/10/07","05:00",0.0,13.6,96.4,1017.5,285.7,1.1,1.3,310.9,0.00,13.1,20.0,"04:53:28",1
"16/10/07","05:10",0.0,13.6,96.5,1017.5,283.7,1.1,1.4,278.6,0.00,13.1,19.9,"05:00:48",1
"16/10/07","05:20",0.0,13.5,96.5,1017.8,288.3,1.1,1.8,306.0,0.00,13.0,19.8,"05:11:20",1
"16/10/07","05:30",0.0,13.4,96.7,1017.5,289.3,1.0,1.6,296.6,0.00,12.9,19.8,"05:28:24",1
"16/10/07","05:40",0.0,13.6,96.8,1017.8,282.8,1.3,1.9,304.5,0.00,13.1,19.7,"05:38:16",1
"16/10/07","05:50",0.0,13.7,96.9,1017.8,295.0,1.2,1.6,310.8,0.00,13.3,19.9,"05:44:40",1
"16/10/07","06:00",0.0,13.8,96.5,1017.5,285.8,1.2,1.6,293.2,0.00,13.3,19.9,"05:50:40",1
"16/10/07","06:10",0.0,13.7,96.3,1018.0,276.3,1.1,1.7,289.9,0.00,13.2,19.8,"06:00:56",1
"16/10/07","06:20",0.0,13.8,96.2,1018.0,297.7,1.1,2.1,331.2,0.00,13.2,19.5,"06:14:16",1
"16/10/07","06:30",0.0,14.0,96.0,1018.0,317.4,1.3,2.4,341.2,0.00,13.4,19.5,"06:27:04",1
"16/10/07","06:40",0.0,14.6,95.0,1018.0,333.3,1.3,1.9,341.2,0.00,13.8,19.7,"06:31:12",1
"16/10/07","06:50",0.0,15.3,91.8,1018.0,323.1,1.5,2.2,341.7,0.00,14.0,19.6,"06:43:20",1
"16/10/07","07:00",0.0,16.1,90.6,1018.0,295.0,0.6,1.2,311.5,0.01,14.6,19.7,"06:50:08",1
"16/10/07","07:10",0.0,16.4,89.3,1018.0,331.9,1.2,1.9,337.6,0.02,14.7,19.7,"07:06:40",1
"16/10/07","07:20",0.0,17.1,85.8,1018.5,291.1,0.6,1.0,314.7,0.03,14.7,19.7,"07:10:24",1
"16/10/07","07:30",0.0,18.0,82.7,1018.5,292.2,0.7,1.6,231.9,0.04,15.1,19.7,"07:20:08",1
"16/10/07","07:40",0.0,19.2,77.0,1019.0,295.8,0.6,1.1,326.6,0.06,15.1,20.0,"07:36:48",1
"16/10/07","07:50",0.0,19.7,75.0,1019.2,296.7,0.6,1.1,316.5,0.09,15.2,19.9,"07:46:40",1
"16/10/07","08:00",0.0,20.2,69.5,1019.2,317.3,0.8,2.4,340.0,0.13,14.5,20.0,"07:56:56",1
"16/10/07","08:10",0.0,20.6,63.4,1019.0,338.9,0.7,1.7,0.6,0.17,13.5,19.9,"08:06:32",1
"16/10/07","08:20",0.0,20.5,65.0,1019.4,3.0,1.5,4.3,337.8,0.20,13.7,20.1,"08:13:04",1
"16/10/07","08:30",0.0,20.9,60.2,1019.2,359.7,0.8,2.2,350.2,0.23,12.9,20.5,"08:22:00",1
"16/10/07","08:40",0.0,21.6,60.9,1019.0,3.1,0.8,1.8,356.5,0.25,13.8,20.5,"08:36:32",1
"16/10/07","08:50",0.0,21.7,58.5,1018.5,344.8,0.7,2.2,4.7,0.28,13.3,20.7,"08:48:08",1
"16/10/07","09:00",0.0,21.8,58.0,1018.2,344.5,1.1,3.2,359.0,0.30,13.2,20.8,"08:51:20",1
"16/10/07","09:10",0.0,22.0,56.0,1018.0,351.9,1.1,2.8,353.3,0.33,12.9,21.3,"09:09:20",1
"16/10/07","09:20",0.0,22.3,57.0,1017.8,345.6,1.2,3.5,352.9,0.34,13.4,21.3,"09:10:24",1
"16/10/07","09:30",0.0,23.0,51.4,1017.8,354.0,0.6,1.9,346.6,0.37,12.5,21.6,"09:27:12",1
"16/10/07","09:40",0.0,22.9,52.9,1017.1,18.1,1.1,3.3,2.2,0.39,12.8,21.7,"09:30:24",1
"16/10/07","09:50",0.0,23.4,52.4,1017.1,338.0,0.8,3.2,333.4,0.41,13.2,22.1,"09:43:36",1
"16/10/07","10:00",0.0,23.2,51.3,1016.6,221.5,1.0,2.1,212.0,0.43,12.6,22.3,"09:59:12",1
"16/10/07","10:10",0.0,23.9,51.2,1016.6,97.7,0.6,1.6,102.1,0.44,13.3,22.4,"10:06:40",1
"16/10/07","10:20",0.0,24.0,50.5,1016.1,65.0,0.8,2.0,108.9,0.45,13.1,22.7,"10:16:40",1
"16/10/07","10:30",0.0,24.4,52.6,1016.6,142.1,0.6,1.9,104.4,0.47,14.1,22.8,"10:22:00",1
"16/10/07","10:40",0.0,24.0,50.5,1016.4,166.0,1.1,2.1,203.1,0.48,13.1,23.1,"10:38:48",1
"16/10/07","10:50",0.0,24.3,49.8,1016.6,157.4,0.7,1.8,140.7,0.49,13.2,23.4,"10:46:32",1
"16/10/07","11:00",0.0,24.6,51.1,1016.8,204.6,0.8,2.8,225.6,0.50,13.9,23.6,"10:57:52",1
"16/10/07","11:10",0.0,24.5,46.3,1016.8,218.0,1.5,3.7,201.7,0.48,12.3,23.8,"11:08:24",1
"16/10/07","11:20",0.0,24.8,47.4,1016.1,191.5,1.3,3.7,214.9,0.52,12.9,24.0,"11:16:40",1
"16/10/07","11:30",0.0,25.6,47.7,1015.6,196.7,1.5,3.9,199.9,0.56,13.7,24.2,"11:22:00",1
"16/10/07","11:40",0.0,24.4,49.0,1015.6,163.3,1.1,2.9,229.0,0.24,13.0,24.1,"11:30:24",1
"16/10/07","11:50",0.0,24.8,46.1,1015.4,139.6,0.7,1.8,129.5,0.38,12.5,24.3,"11:40:56",1
"16/10/07","12:00",0.0,25.1,43.3,1015.6,164.2,0.8,1.8,226.1,0.49,11.8,24.5,"11:54:40",1
"16/10/07","12:10",0.0,25.8,41.7,1015.2,347.1,1.1,2.9,346.6,0.56,11.9,24.7,"12:03:44",1
"16/10/07","12:20",0.0,24.6,50.2,1014.9,332.2,1.0,2.8,353.9,0.25,13.6,24.7,"12:12:00",1
"16/10/07","12:30",0.0,24.5,52.0,1014.5,46.8,0.6,2.0,145.8,0.18,14.0,24.8,"12:26:00",1
"16/10/07","12:40",0.0,26.0,49.7,1014.2,118.5,0.7,2.2,111.9,0.43,14.7,24.9,"12:38:40",1
"16/10/07","12:50",0.0,26.0,46.6,1014.5,80.9,0.7,2.1,116.0,0.38,13.7,24.9,"12:48:24",1
"16/10/07","13:00",0.0,25.4,49.6,1014.0,94.1,0.7,2.0,351.8,0.24,14.1,24.8,"12:50:24",1
"16/10/07","13:10",0.0,26.3,47.5,1014.0,119.4,1.0,2.7,115.1,0.48,14.3,25.0,"13:03:20",1
"16/10/07","13:20",0.0,26.5,47.0,1014.5,118.7,0.8,2.1,147.3,0.47,14.3,25.0,"13:10:24",1
"16/10/07","13:30",0.0,26.3,49.0,1014.2,119.1,0.7,2.6,140.7,0.46,14.8,25.2,"13:24:40",1
"16/10/07","13:40",0.0,26.4,48.7,1014.7,172.3,0.8,2.5,146.8,0.40,14.8,25.3,"13:38:16",1
"16/10/07","13:50",0.0,26.2,48.8,1014.5,146.9,1.2,2.8,131.6,0.44,14.6,25.4,"13:41:44",1
"16/10/07","14:00",0.0,27.1,49.5,1014.2,28.2,0.5,2.4,344.4,0.41,15.7,25.6,"13:54:00",1
"16/10/07","14:10",0.0,26.7,48.8,1014.5,26.8,0.8,2.2,14.3,0.39,15.1,25.5,"14:06:56",1
"16/10/07","14:20",0.0,26.6,47.9,1014.2,131.5,0.8,2.1,221.7,0.37,14.7,25.7,"14:12:24",1
"16/10/07","14:30",0.0,27.1,53.2,1014.2,149.4,1.0,2.5,218.6,0.34,16.8,25.8,"14:25:12",1
"16/10/07","14:40",0.0,26.9,53.2,1013.8,123.1,1.3,3.5,120.1,0.34,16.6,25.8,"14:32:24",1
"16/10/07","14:50",0.0,26.7,54.0,1013.5,136.7,1.2,2.5,100.5,0.33,16.7,26.1,"14:43:04",1
"16/10/07","15:00",0.0,26.3,54.5,1013.5,132.5,1.5,2.8,109.8,0.26,16.4,25.8,"14:52:40",1
"16/10/07","15:10",0.0,25.7,57.6,1013.3,129.4,1.1,3.6,183.8,0.16,16.8,25.8,"15:02:40",1
"16/10/07","15:20",0.0,25.9,57.0,1012.8,130.8,1.0,2.6,155.6,0.18,16.8,25.7,"15:11:36",1
"16/10/07","15:30",0.0,25.7,56.5,1012.6,95.4,1.0,3.5,98.8,0.17,16.5,25.6,"15:26:16",1
"16/10/07","15:40",0.0,25.0,59.6,1013.3,146.2,1.1,3.6,123.2,0.08,16.6,25.5,"15:39:52",1
"16/10/07","15:50",0.0,25.4,59.8,1013.3,101.1,1.1,3.2,149.3,0.07,17.1,25.3,"15:43:20",1
"16/10/07","16:00",0.0,25.9,58.4,1013.3,100.2,0.7,2.4,106.1,0.07,17.2,25.2,"15:59:52",1
"16/10/07","16:10",0.0,25.6,59.0,1013.3,79.2,0.8,2.4,120.6,0.04,17.0,25.2,"16:00:56",1
"16/10/07","16:20",0.0,25.3,61.1,1013.5,127.8,0.6,1.8,102.9,0.04,17.3,25.1,"16:10:08",1
"16/10/07","16:30",0.0,25.1,60.9,1014.0,61.4,0.7,1.9,21.6,0.04,17.1,25.0,"16:28:56",1
"16/10/07","16:40",0.0,25.1,60.9,1013.8,4.9,0.7,4.0,354.5,0.04,17.1,24.9,"16:39:44",1
"16/10/07","16:50",0.0,24.9,62.3,1014.2,42.3,0.8,2.2,342.2,0.01,17.2,24.7,"16:49:04",1
"16/10/07","17:00",0.0,24.6,63.5,1014.2,358.9,0.6,1.6,17.3,0.00,17.3,24.8,"16:53:12",1
"16/10/07","17:10",0.0,24.1,65.1,1014.5,47.1,0.3,0.9,68.6,0.00,17.2,24.6,"17:05:04",1
"16/10/07","17:20",0.0,23.8,65.9,1014.7,91.3,0.3,1.1,152.8,0.00,17.1,24.7,"17:15:28",1
"16/10/07","17:30",0.0,23.6,67.1,1014.7,55.7,0.3,1.6,1.1,0.00,17.2,24.5,"17:20:24",1
"16/10/07","17:40",0.0,23.6,67.3,1014.7,343.9,0.7,1.9,34.6,0.00,17.2,24.4,"17:38:56",1
"16/10/07","17:50",0.0,23.4,68.5,1014.7,316.0,0.8,1.9,341.8,0.00,17.3,24.4,"17:40:48",1
"16/10/07","18:00",0.0,23.4,68.8,1014.9,174.6,1.2,2.4,162.5,0.00,17.4,24.2,"17:54:16",1
"16/10/07","18:10",0.0,23.4,68.6,1015.4,149.7,1.0,2.7,132.2,0.00,17.3,24.1,"18:05:52",1
"16/10/07","18:20",0.0,23.2,69.3,1015.4,164.9,1.0,3.2,125.2,0.00,17.3,24.0,"18:18:40",1
"16/10/07","18:30",0.0,23.1,69.8,1015.4,178.2,1.0,2.8,126.3,0.00,17.3,24.0,"18:23:12",1
"16/10/07","18:40",0.0,23.0,70.4,1015.2,167.1,1.1,2.6,144.5,0.00,17.4,23.8,"18:36:24",1
"16/10/07","18:50",0.0,22.9,71.3,1015.6,188.3,1.0,2.7,195.1,0.00,17.5,23.9,"18:41:52",1
"16/10/07","19:00",0.0,22.8,71.6,1015.4,156.7,1.0,2.7,141.6,0.00,17.4,23.6,"18:58:08",1
"16/10/07","19:10",0.0,22.7,72.2,1015.9,184.3,0.8,2.6,154.4,0.00,17.5,23.7,"19:05:52",1
"16/10/07","19:20",0.0,22.6,72.6,1015.6,163.2,0.8,1.7,181.2,0.00,17.5,23.7,"19:15:44",1
"16/10/07","19:30",0.0,22.6,73.3,1015.6,189.2,0.6,2.4,149.0,0.00,17.6,23.6,"19:27:28",1
"16/10/07","19:40",0.0,22.4,73.9,1015.9,272.2,0.5,1.4,121.2,0.00,17.6,23.5,"19:34:56",1
"16/10/07","19:50",0.0,22.4,74.6,1016.1,116.8,0.5,1.2,124.7,0.00,17.7,23.3,"19:40:24",1
"16/10/07","20:00",0.0,22.4,74.6,1015.9,5.4,0.6,1.3,327.9,0.00,17.7,23.3,"19:50:16",1
"16/10/07","20:10",0.0,22.4,75.1,1015.2,339.6,0.5,1.4,9.9,0.00,17.8,23.3,"20:01:28",1
"16/10/07","20:20",0.0,22.4,74.9,1015.4,355.1,0.5,1.8,354.8,0.00,17.8,23.3,"20:14:48",1
"16/10/07","20:30",0.0,22.5,75.1,1015.4,349.6,0.6,2.5,9.3,0.00,17.9,23.2,"20:24:32",1
"16/10/07","20:40",0.0,22.4,75.8,1015.9,206.9,1.0,2.4,206.1,0.00,18.0,23.2,"20:34:56",1
"16/10/07","20:50",0.0,22.4,76.1,1015.4,171.9,0.8,3.7,120.6,0.00,18.0,23.1,"20:48:24",1
"16/10/07","21:00",0.0,22.4,76.5,1015.4,144.4,1.0,2.5,118.7,0.00,18.1,23.2,"20:57:52",1
"16/10/07","21:10",0.0,22.3,76.9,1015.6,154.1,1.1,2.5,148.7,0.00,18.1,23.2,"21:04:48",1
"16/10/07","21:20",0.0,22.3,77.4,1015.9,155.2,0.8,2.7,68.0,0.00,18.2,23.0,"21:15:28",1
"16/10/07","21:30",0.0,22.1,78.0,1015.6,184.9,0.7,2.5,176.5,0.00,18.1,22.9,"21:20:48",1
"16/10/07","21:40",0.0,22.1,77.9,1015.6,154.3,1.0,3.2,142.2,0.00,18.1,22.8,"21:39:44",1
"16/10/07","21:50",0.0,22.1,78.1,1015.9,194.3,1.0,2.8,134.2,0.00,18.1,22.9,"21:40:16",1
"16/10/07","22:00",0.0,22.1,77.9,1015.6,188.6,0.7,2.0,218.4,0.00,18.1,23.1,"21:51:12",1
"16/10/07","22:10",0.0,22.2,78.3,1015.4,202.2,0.7,1.4,139.9,0.00,18.3,22.7,"22:06:24",1
"16/10/07","22:20",0.0,22.1,78.0,1015.4,189.0,0.7,2.0,234.5,0.00,18.1,22.8,"22:19:12",1
"16/10/07","22:30",0.0,22.2,77.6,1015.2,183.9,0.8,2.4,219.2,0.00,18.1,22.7,"22:24:32",1
"16/10/07","22:40",0.0,22.2,77.6,1015.4,189.9,0.8,3.2,139.1,0.00,18.1,22.7,"22:36:24",1
"16/10/07","22:50",0.0,22.3,77.6,1014.9,193.3,1.0,2.8,156.7,0.00,18.2,22.7,"22:42:56",1
"16/10/07","23:00",0.0,22.2,77.7,1014.9,148.5,0.7,2.6,146.1,0.00,18.2,22.8,"22:52:56",1
"16/10/07","23:10",0.0,22.2,77.6,1014.9,181.8,0.8,2.4,189.3,0.00,18.1,22.8,"23:03:12",1
"16/10/07","23:20",0.0,22.3,77.4,1014.9,67.0,0.6,2.0,83.1,0.00,18.2,22.7,"23:10:48",1
"16/10/07","23:30",0.0,22.1,78.0,1014.9,341.3,0.3,1.3,10.0,0.00,18.1,22.7,"23:27:04",1
"16/10/07","23:40",0.0,22.0,78.6,1014.7,309.3,0.5,1.3,327.8,0.00,18.2,22.7,"23:32:08",1
"16/10/07","23:50",0.0,22.1,79.0,1014.2,338.2,0.5,1.2,299.4,0.00,18.3,22.5,"23:45:04",1
"16/10/07","24:00",0.0,22.1,79.4,1014.5,335.8,0.7,1.4,328.5,0.00,18.4,22.8,"23:56:32",1
